TimeEDT,TemperatureF,Dew PointF,Humidity,Sea Level PressureIn,VisibilityMPH,Wind Direction,Wind SpeedMPH,Gust SpeedMPH,PrecipitationIn,Events,Conditions,WindDirDegrees,DateUTC
12:53 AM,50.0,28.9,44,29.88,10.0,SSW,5.8,-,N/A,,Overcast,210,2013-10-27 04:53:00
1:53 AM,50.0,28.9,44,29.87,10.0,SSW,5.8,-,N/A,,Overcast,210,2013-10-27 05:53:00
2:53 AM,48.0,33.1,56,29.86,10.0,Variable,3.5,-,0.00,Rain,Light Rain,0,2013-10-27 06:53:00
3:53 AM,46.9,34.0,61,29.84,10.0,SSW,3.5,-,0.00,,Overcast,200,2013-10-27 07:53:00
4:53 AM,46.9,33.1,59,29.85,10.0,SW,3.5,-,N/A,,Overcast,230,2013-10-27 08:53:00
5:53 AM,42.1,35.1,76,29.85,10.0,South,3.5,-,N/A,,Scattered Clouds,190,2013-10-27 09:53:00
6:53 AM,39.9,33.1,77,29.87,10.0,Calm,Calm,-,N/A,,Clear,0,2013-10-27 10:53:00
7:53 AM,37.0,33.1,86,29.89,10.0,Calm,Calm,-,N/A,,Clear,0,2013-10-27 11:53:00
8:53 AM,45.0,36.0,71,29.92,10.0,East,3.5,-,N/A,,Clear,100,2013-10-27 12:53:00
9:53 AM,51.1,32.0,48,29.92,10.0,Variable,4.6,-,N/A,,Clear,0,2013-10-27 13:53:00
10:53 AM,53.1,32.0,45,29.93,10.0,WNW,10.4,-,N/A,,Clear,300,2013-10-27 14:53:00
11:53 AM,54.0,30.9,41,29.93,10.0,WNW,5.8,-,N/A,,Clear,300,2013-10-27 15:53:00
12:53 PM,57.0,30.0,36,29.91,10.0,WNW,9.2,-,N/A,,Partly Cloudy,300,2013-10-27 16:53:00
1:53 PM,55.9,28.0,34,29.91,10.0,NW,9.2,18.4,N/A,,Scattered Clouds,310,2013-10-27 17:53:00
2:53 PM,55.9,26.1,32,29.91,10.0,NW,11.5,19.6,N/A,,Scattered Clouds,310,2013-10-27 18:53:00
3:53 PM,59.0,27.0,29,29.92,10.0,NW,9.2,-,N/A,,Mostly Cloudy,310,2013-10-27 19:53:00
4:53 PM,55.0,25.0,31,29.94,10.0,NW,5.8,19.6,N/A,,Mostly Cloudy,310,2013-10-27 20:53:00
5:53 PM,52.0,26.1,37,29.98,10.0,WNW,8.1,-,N/A,,Clear,300,2013-10-27 21:53:00
6:53 PM,46.9,27.0,46,30.01,10.0,Calm,Calm,-,N/A,,Partly Cloudy,0,2013-10-27 22:53:00
7:53 PM,41.0,30.0,65,30.04,10.0,Calm,Calm,-,N/A,,Clear,0,2013-10-27 23:53:00
8:53 PM,37.9,30.0,73,30.05,10.0,Calm,Calm,-,N/A,,Clear,0,2013-10-28 00:53:00
9:53 PM,37.0,30.9,79,30.08,10.0,Calm,Calm,-,N/A,,Clear,0,2013-10-28 01:53:00
10:53 PM,35.1,28.9,78,30.10,10.0,Calm,Calm,-,N/A,,Clear,0,2013-10-28 02:53:00
11:53 PM,34.0,28.9,82,30.11,10.0,Calm,Calm,-,N/A,,Clear,0,2013-10-28 03:53:00